This is the latest recevied weather packets stored in our database for station/object EA3EH-1. If no packets are shown the sender has not sent any weather packets the latest 10 day(s).
| Time | Temp. | Humidity | Pressure | Rain* | Wind** | Luminosity | Snow |
|---|---|---|---|---|---|---|---|
| 1777155105 | 13.89° C | 66% | 1015 hPa | 0 mm | - | - | - |
| 1777153605 | 14.44° C | 65% | 1014 hPa | 0 mm | - | - | - |
| 1777152705 | 14.44° C | 64% | 1014 hPa | 0 mm | - | - | - |
| 1777152107 | 14.44° C | 63% | 1014 hPa | 0 mm | - | - | - |
| 1777151804 | 14.44° C | 62% | 1014 hPa | 0 mm | - | - | - |
| 1777151504 | 15° C | 60% | 1014 hPa | 0 mm | - | - | - |
| 1777150905 | 15° C | 59% | 1014 hPa | 0 mm | - | - | - |
| 1777150605 | 15° C | 59% | 1014 hPa | 0 mm | - | - | - |
| 1777150306 | 15° C | 60% | 1014 hPa | 0 mm | - | - | - |
| 1777149705 | 15° C | 58% | 1014 hPa | 0 mm | - | - | - |
| 1777149404 | 15.56° C | 56% | 1014 hPa | 0 mm | - | - | - |
| 1777149106 | 15.56° C | 55% | 1014 hPa | 0 mm | - | - | - |
| 1777148504 | 15.56° C | 51% | 1014 hPa | 0 mm | - | - | - |
| 1777147006 | 16.67° C | 47% | 1014 hPa | 0 mm | - | - | - |
| 1777146704 | 16.67° C | 46% | 1014 hPa | 0 mm | - | - | - |
| 1777144304 | 17.78° C | 45% | 1014 hPa | 0 mm | - | - | - |
| 1777143404 | 18.33° C | 41% | 1013 hPa | 0 mm | - | - | - |
| 1777142805 | 18.89° C | 39% | 1013 hPa | 0 mm | - | - | - |
| 1777142204 | 19.44° C | 38% | 1013 hPa | 0 mm | - | - | - |
| 1777141904 | 19.44° C | 36% | 1013 hPa | 0 mm | - | - | - |
| 1777141606 | 19.44° C | 35% | 1013 hPa | 0 mm | - | - | - |
| 1777141309 | 20° C | 35% | 1013 hPa | 0 mm | - | - | - |
| 1777138907 | 21.11° C | 29% | 1013 hPa | 0 mm | - | - | - |
| 1777138304 | 21.11° C | 32% | 1013 hPa | 0 mm | - | - | - |
| 1777136204 | 22.22° C | 22% | 1013 hPa | 0 mm | - | - | - |
* Rain latest hour (hover to see other rain measurements)
** Current wind speed in m/s (hover to see current wind gust speed)